HXMT (HUIYAN) (42758 NORAD) Tracking and Keplerian Element Data

This shows tracking and keplerian element data for the satellite.

Feedback or suggestion? Click here.




ElementValue
Catalog42758
NameHXMT (HUIYAN)
Epoch Orbit23620
Epoch Day268.99234211
Epoch Year2021
RAAN1.2185
Inclination43.0187
Eccentricity0.0007581
Argument of Perigee60.4194
Mean Anonmoly114.4164
Mean Motion15.0932178
Decay Rate7.36E-06
L11 42758U 17034A 21268.99234211 .00000736 00000-0 58875-4 0 9994
L22 42758 43.0187 1.2185 0007581 60.4194 114.4164 15.09321780236203

Live tracking and technical data element details for HXMT (HUIYAN) (NORAD 42758). HXMT (HUIYAN) can be tracked NOW for your location showing map with azimuth and elevation plus other details from your city location.

Track the satellite on the map from your city or location and see movement details for azimuth, elevation, latitude, longitude, range, height, and movement on the map or in text.







IsCatalogInMostPopularTable: catalog: 42758, numindb: 518
Update: records affected: 1



GetName: 42758 HXMT (HUIYAN)

Hit Count: updated at: Mon, 27 Sep 2021 00:49:00 GMT